GFSFLT1_prec_precacc_024.txt.gz
Total_Precipitation_Accumulation
0.03 0.07 0.07 0.07 0.05 0.10 0.37 0.47 0.74 0.72 0.42 0.29 0.11 0.05 0.02 0.02 0.02 0.01 0.00 0.00 0.00 0.00 0.00 0.00 0.00 0.00 0.00 0.00 0.00 0.00 0.00 0.00
0.05 0.07 0.09 0.07 0.08 0.18 0.39 0.47 0.59 0.29 0.08 0.04 0.04 0.04 0.04 0.04 0.01 0.00 0.00 0.00 0.00 0.00 0.00 0.00 0.00 0.00 0.00 0.00 0.00 0.00 0.00 0.00
0.02 0.03 0.03 0.04 0.10 0.35 0.43 0.23 0.12 0.01 0.01 0.01 0.03 0.05 0.02 0.00 0.00 0.00 0.00 0.00 0.00 0.00 0.00 0.00 0.00 0.00 0.00 0.00 0.00 0.00 0.00 0.00
0.03 0.03 0.03 0.01 0.02 0.17 0.16 0.04 0.02 0.00 0.01 0.02 0.01 0.00 0.00 0.00 0.00 0.00 0.00 0.00 0.00 0.00 0.00 0.00 0.00 0.00 0.00 0.00 0.00 0.00 0.00 0.00
0.00 0.00 0.00 0.01 0.06 0.22 0.07 0.05 0.02 0.01 0.01 0.00 0.00 0.00 0.00 0.00 0.00 0.00 0.00 0.00 0.00 0.00 0.00 0.00 0.00 0.00 0.00 0.00 0.00 0.00 0.00 0.00
0.00 0.00 0.00 0.02 0.04 0.13 0.07 0.02 0.02 0.02 0.01 0.00 0.00 0.00 0.00 0.00 0.00 0.00 0.00 0.00 0.00 0.00 0.00 0.00 0.00 0.00 0.00 0.00 0.00 0.00 0.00 0.00
0.00 0.00 0.01 0.02 0.08 0.09 0.01 0.00 0.00 0.00 0.00 0.00 0.00 0.00 0.00 0.00 0.00 0.00 0.00 0.00 0.00 0.00 0.00 0.00 0.00 0.00 0.00 0.00 0.00 0.00 0.00 0.00
0.00 0.02 0.04 0.04 0.05 0.03 0.00 0.00 0.00 0.00 0.00 0.00 0.00 0.00 0.00 0.00 0.00 0.00 0.00 0.00 0.00 0.00 0.00 0.00 0.00 0.00 0.00 0.00 0.00 0.00 0.01 0.00
0.00 0.01 0.02 0.04 0.05 0.01 0.00 0.00 0.00 0.00 0.00 0.00 0.00 0.00 0.00 0.00 0.00 0.00 0.00 0.00 0.00 0.00 0.00 0.00 0.00 0.00 0.00 0.01 0.01 0.02 0.01 0.00
0.00 0.00 0.01 0.02 0.02 0.01 0.00 0.00 0.00 0.00 0.00 0.00 0.00 0.00 0.00 0.00 0.00 0.00 0.00 0.00 0.00 0.00 0.00 0.01 0.02 0.01 0.00 0.02 0.02 0.01 0.01 0.01
0.00 0.00 0.00 0.00 0.00 0.00 0.00 0.00 0.00 0.00 0.00 0.00 0.00 0.00 0.00 0.00 0.00 0.00 0.00 0.00 0.00 0.00 0.01 0.02 0.01 0.02 0.03 0.02 0.01 0.00 0.00 0.00
0.00 0.00 0.00 0.00 0.00 0.00 0.00 0.00 0.00 0.00 0.00 0.00 0.00 0.00 0.00 0.00 0.00 0.00 0.00 0.00 0.00 0.00 0.00 0.01 0.01 0.01 0.00 0.01 0.02 0.00 0.01 0.01
0.00 0.00 0.00 0.00 0.00 0.00 0.00 0.00 0.00 0.00 0.00 0.00 0.00 0.00 0.00 0.00 0.00 0.00 0.00 0.00 0.00 0.00 0.00 0.01 0.00 0.00 0.01 0.02 0.01 0.01 0.01 0.01
0.00 0.00 0.00 0.00 0.00 0.00 0.00 0.00 0.00 0.00 0.00 0.00 0.00 0.00 0.00 0.00 0.00 0.00 0.00 0.00 0.00 0.01 0.00 0.00 0.00 0.00 0.01 0.01 0.00 0.01 0.00 0.00
0.00 0.00 0.00 0.00 0.00 0.00 0.00 0.00 0.00 0.00 0.00 0.00 0.00 0.00 0.00 0.00 0.00 0.00 0.00 0.00 0.00 0.00 0.00 0.00 0.00 0.01 0.00 0.00 0.00 0.00 0.00 0.00
0.00 0.00 0.00 0.00 0.00 0.00 0.00 0.00 0.00 0.00 0.00 0.00 0.00 0.00 0.00 0.00 0.00 0.00 0.00 0.00 0.00 0.00 0.00 0.00 0.00 0.00 0.00 0.00 0.00 0.00 0.00 0.00
0.00 0.00 0.00 0.00 0.00 0.01 0.01 0.00 0.00 0.00 0.00 0.00 0.00 0.00 0.00 0.00 0.00 0.00 0.00 0.00 0.00 0.00 0.00 0.01 0.00 0.02 0.00 0.00 0.00 0.00 0.00 0.00
0.00 0.00 0.00 0.00 0.00 0.00 0.00 0.00 0.00 0.00 0.00 0.00 0.00 0.00 0.00 0.00 0.00 0.00 0.00 0.00 0.00 0.00 0.01 0.01 0.02 0.03 0.00 0.00 0.00 0.00 0.00 0.00
0.00 0.00 0.00 0.00 0.00 0.00 0.00 0.00 0.00 0.00 0.00 0.00 0.00 0.00 0.00 0.00 0.00 0.00 0.01 0.01 0.00 0.00 0.00 0.00 0.00 0.00 0.00 0.00 0.00 0.00 0.00 0.00

GFSFLT1_prec_precacc_030.txt.gz
Total_Precipitation_Accumulation
0.03 0.07 0.07 0.07 0.05 0.10 0.37 0.47 0.74 0.72 0.42 0.29 0.11 0.06 0.05 0.02 0.02 0.01 0.00 0.00 0.00 0.00 0.00 0.00 0.00 0.00 0.00 0.00 0.00 0.00 0.00 0.00
0.05 0.07 0.09 0.07 0.08 0.18 0.39 0.47 0.59 0.29 0.08 0.04 0.05 0.06 0.05 0.04 0.01 0.00 0.00 0.00 0.00 0.00 0.00 0.00 0.00 0.00 0.00 0.00 0.00 0.00 0.00 0.00
0.02 0.04 0.03 0.04 0.11 0.36 0.43 0.23 0.13 0.02 0.01 0.01 0.03 0.05 0.03 0.00 0.00 0.00 0.00 0.00 0.00 0.00 0.00 0.00 0.00 0.00 0.00 0.00 0.00 0.00 0.00 0.00
0.03 0.03 0.03 0.01 0.02 0.18 0.18 0.06 0.05 0.02 0.02 0.02 0.03 0.03 0.01 0.00 0.00 0.00 0.00 0.00 0.00 0.00 0.00 0.00 0.00 0.00 0.00 0.00 0.00 0.00 0.00 0.00
0.00 0.00 0.00 0.01 0.06 0.25 0.11 0.10 0.10 0.06 0.04 0.04 0.04 0.10 0.06 0.02 0.00 0.00 0.00 0.00 0.00 0.00 0.00 0.00 0.00 0.00 0.00 0.00 0.00 0.00 0.00 0.00
0.00 0.00 0.00 0.02 0.07 0.20 0.15 0.12 0.16 0.09 0.10 0.16 0.11 0.15 0.11 0.03 0.00 0.00 0.00 0.00 0.00 0.00 0.00 0.00 0.00 0.00 0.00 0.00 0.00 0.00 0.00 0.00
0.00 0.00 0.01 0.03 0.11 0.17 0.29 0.28 0.16 0.10 0.13 0.18 0.13 0.11 0.08 0.02 0.01 0.00 0.00 0.00 0.00 0.00 0.00 0.00 0.00 0.00 0.00 0.00 0.00 0.00 0.00 0.00
0.00 0.02 0.04 0.04 0.08 0.13 0.18 0.24 0.17 0.10 0.09 0.10 0.06 0.03 0.02 0.01 0.00 0.00 0.00 0.00 0.00 0.00 0.00 0.00 0.00 0.00 0.00 0.00 0.00 0.00 0.01 0.00
0.00 0.01 0.02 0.05 0.11 0.08 0.06 0.19 0.18 0.08 0.08 0.04 0.01 0.01 0.01 0.00 0.00 0.00 0.00 0.00 0.00 0.00 0.00 0.00 0.00 0.01 0.01 0.01 0.01 0.02 0.01 0.00
0.00 0.00 0.01 0.04 0.07 0.04 0.09 0.08 0.06 0.02 0.01 0.00 0.00 0.01 0.02 0.03 0.03 0.00 0.00 0.00 0.00 0.00 0.00 0.01 0.02 0.01 0.00 0.02 0.02 0.01 0.01 0.01
0.00 0.00 0.00 0.01 0.01 0.01 0.04 0.02 0.00 0.00 0.00 0.00 0.01 0.03 0.03 0.02 0.01 0.01 0.01 0.00 0.00 0.00 0.01 0.02 0.01 0.02 0.03 0.02 0.01 0.00 0.00 0.00
0.00 0.00 0.00 0.00 0.00 0.00 0.00 0.00 0.00 0.00 0.00 0.00 0.02 0.03 0.02 0.02 0.01 0.01 0.00 0.00 0.00 0.00 0.00 0.01 0.01 0.01 0.00 0.01 0.02 0.00 0.01 0.01
0.00 0.00 0.00 0.00 0.00 0.00 0.01 0.01 0.00 0.00 0.02 0.03 0.03 0.02 0.01 0.00 0.00 0.00 0.00 0.00 0.00 0.00 0.00 0.01 0.00 0.00 0.01 0.02 0.01 0.01 0.01 0.01
0.00 0.00 0.00 0.00 0.00 0.02 0.06 0.04 0.03 0.04 0.03 0.03 0.01 0.00 0.00 0.00 0.00 0.00 0.00 0.00 0.00 0.01 0.00 0.00 0.00 0.00 0.01 0.01 0.00 0.01 0.00 0.00
0.00 0.00 0.00 0.00 0.04 0.09 0.06 0.04 0.03 0.05 0.02 0.01 0.00 0.00 0.00 0.00 0.00 0.00 0.00 0.00 0.00 0.00 0.00 0.00 0.00 0.01 0.00 0.00 0.00 0.00 0.00 0.00
0.00 0.00 0.00 0.01 0.05 0.04 0.03 0.02 0.02 0.01 0.01 0.00 0.00 0.00 0.00 0.00 0.00 0.00 0.00 0.00 0.00 0.00 0.00 0.00 0.00 0.00 0.00 0.00 0.00 0.00 0.00 0.00
0.00 0.00 0.01 0.01 0.01 0.02 0.02 0.01 0.01 0.01 0.00 0.00 0.00 0.00 0.00 0.00 0.00 0.00 0.00 0.00 0.00 0.00 0.00 0.01 0.01 0.03 0.00 0.00 0.00 0.00 0.00 0.00
0.00 0.00 0.00 0.00 0.00 0.00 0.00 0.00 0.00 0.00 0.00 0.00 0.00 0.01 0.00 0.00 0.00 0.00 0.00 0.00 0.00 0.01 0.03 0.03 0.04 0.03 0.00 0.00 0.00 0.00 0.00 0.00
0.00 0.00 0.00 0.00 0.00 0.00 0.00 0.00 0.00 0.00 0.00 0.00 0.00 0.01 0.00 0.00 0.00 0.00 0.02 0.03 0.05 0.05 0.04 0.01 0.00 0.00 0.00 0.00 0.00 0.00 0.00 0.00

GFSFLT1_prec_precacc_036.txt.gz
Total_Precipitation_Accumulation
0.03 0.07 0.07 0.07 0.05 0.10 0.37 0.47 0.74 0.75 0.42 0.29 0.11 0.07 0.10 0.07 0.05 0.02 0.01 0.00 0.00 0.00 0.00 0.00 0.00 0.00 0.00 0.00 0.00 0.00 0.00 0.00
0.05 0.07 0.09 0.07 0.08 0.18 0.39 0.47 0.60 0.31 0.09 0.04 0.05 0.10 0.11 0.07 0.02 0.00 0.00 0.00 0.00 0.00 0.00 0.00 0.00 0.00 0.00 0.00 0.00 0.00 0.00 0.00
0.02 0.04 0.03 0.04 0.11 0.36 0.43 0.23 0.14 0.03 0.02 0.01 0.03 0.07 0.07 0.03 0.00 0.00 0.00 0.00 0.00 0.00 0.00 0.00 0.00 0.00 0.00 0.00 0.00 0.00 0.00 0.00
0.03 0.03 0.03 0.01 0.02 0.18 0.18 0.06 0.05 0.03 0.02 0.02 0.03 0.09 0.12 0.05 0.01 0.00 0.00 0.00 0.00 0.00 0.00 0.00 0.00 0.00 0.00 0.00 0.00 0.00 0.00 0.00
0.00 0.00 0.00 0.01 0.06 0.25 0.11 0.10 0.10 0.09 0.08 0.06 0.06 0.13 0.13 0.12 0.08 0.03 0.02 0.01 0.00 0.00 0.00 0.00 0.00 0.00 0.00 0.00 0.00 0.00 0.00 0.00
0.00 0.00 0.00 0.02 0.07 0.20 0.15 0.12 0.20 0.14 0.22 0.25 0.18 0.21 0.20 0.11 0.04 0.03 0.03 0.03 0.01 0.00 0.00 0.00 0.00 0.00 0.00 0.00 0.00 0.00 0.00 0.00
0.00 0.00 0.01 0.03 0.11 0.17 0.29 0.31 0.21 0.19 0.32 0.36 0.20 0.17 0.14 0.10 0.06 0.03 0.02 0.02 0.02 0.01 0.00 0.00 0.00 0.00 0.00 0.00 0.00 0.00 0.00 0.00
0.00 0.02 0.04 0.04 0.08 0.13 0.18 0.32 0.41 0.26 0.23 0.19 0.12 0.11 0.12 0.09 0.06 0.07 0.06 0.05 0.04 0.02 0.00 0.00 0.00 0.00 0.00 0.01 0.00 0.00 0.01 0.00
0.00 0.01 0.02 0.05 0.11 0.08 0.06 0.29 0.41 0.47 0.29 0.13 0.09 0.06 0.04 0.03 0.03 0.06 0.04 0.03 0.01 0.00 0.00 0.00 0.00 0.01 0.01 0.01 0.01 0.02 0.01 0.00
0.00 0.00 0.01 0.04 0.07 0.05 0.09 0.09 0.25 0.37 0.21 0.07 0.03 0.02 0.04 0.06 0.08 0.05 0.04 0.03 0.01 0.00 0.00 0.01 0.02 0.01 0.00 0.02 0.02 0.01 0.01 0.01
0.00 0.00 0.00 0.01 0.01 0.01 0.06 0.04 0.02 0.09 0.15 0.10 0.03 0.04 0.06 0.07 0.08 0.10 0.08 0.04 0.01 0.00 0.01 0.02 0.01 0.02 0.03 0.02 0.01 0.00 0.00 0.00
0.00 0.00 0.00 0.00 0.00 0.00 0.00 0.00 0.01 0.01 0.01 0.02 0.05 0.09 0.11 0.13 0.13 0.14 0.10 0.04 0.01 0.01 0.01 0.01 0.01 0.01 0.00 0.01 0.02 0.00 0.01 0.01
0.00 0.00 0.00 0.00 0.00 0.00 0.01 0.03 0.03 0.04 0.05 0.08 0.12 0.14 0.16 0.12 0.10 0.08 0.06 0.03 0.02 0.01 0.01 0.01 0.00 0.00 0.01 0.02 0.01 0.01 0.01 0.01
0.00 0.00 0.00 0.00 0.00 0.02 0.09 0.08 0.12 0.13 0.15 0.14 0.12 0.09 0.08 0.08 0.08 0.05 0.03 0.02 0.01 0.01 0.00 0.00 0.01 0.00 0.01 0.02 0.01 0.02 0.04 0.01
0.00 0.00 0.00 0.00 0.04 0.11 0.08 0.10 0.12 0.18 0.13 0.09 0.06 0.05 0.04 0.04 0.03 0.02 0.02 0.01 0.01 0.00 0.00 0.00 0.00 0.01 0.01 0.03 0.06 0.11 0.02 0.00
0.00 0.00 0.00 0.01 0.05 0.05 0.04 0.06 0.06 0.09 0.06 0.05 0.05 0.04 0.03 0.02 0.01 0.01 0.00 0.00 0.00 0.00 0.00 0.00 0.00 0.01 0.05 0.13 0.15 0.05 0.00 0.00
0.00 0.00 0.01 0.01 0.01 0.02 0.03 0.03 0.02 0.01 0.01 0.00 0.01 0.01 0.01 0.00 0.00 0.00 0.00 0.00 0.00 0.00 0.01 0.02 0.03 0.11 0.16 0.10 0.03 0.01 0.00 0.00
0.00 0.00 0.00 0.00 0.00 0.00 0.00 0.00 0.00 0.00 0.00 0.00 0.00 0.01 0.01 0.00 0.00 0.00 0.00 0.00 0.01 0.04 0.08 0.12 0.21 0.16 0.04 0.03 0.01 0.00 0.00 0.00
0.00 0.00 0.00 0.00 0.00 0.00 0.00 0.00 0.00 0.00 0.00 0.00 0.00 0.01 0.00 0.00 0.00 0.01 0.02 0.06 0.10 0.16 0.20 0.16 0.06 0.02 0.04 0.03 0.01 0.00 0.00 0.00

GFSFLT1_prec_precacc_042.txt.gz
Total_Precipitation_Accumulation
0.03 0.07 0.07 0.07 0.05 0.10 0.37 0.48 0.77 0.78 0.46 0.31 0.12 0.07 0.11 0.11 0.11 0.15 0.07 0.00 0.00 0.00 0.03 0.00 0.00 0.00 0.00 0.00 0.00 0.00 0.00 0.00
0.05 0.07 0.09 0.07 0.08 0.18 0.39 0.47 0.62 0.37 0.13 0.05 0.05 0.10 0.13 0.11 0.14 0.15 0.11 0.02 0.00 0.00 0.01 0.00 0.00 0.00 0.00 0.00 0.00 0.00 0.00 0.00
0.02 0.04 0.03 0.04 0.11 0.36 0.43 0.23 0.15 0.07 0.02 0.01 0.03 0.07 0.07 0.04 0.05 0.06 0.04 0.06 0.02 0.00 0.02 0.02 0.00 0.00 0.00 0.00 0.00 0.00 0.00 0.00
0.03 0.03 0.03 0.01 0.02 0.18 0.18 0.06 0.05 0.08 0.02 0.02 0.03 0.09 0.13 0.07 0.04 0.10 0.06 0.07 0.04 0.01 0.00 0.00 0.00 0.00 0.00 0.00 0.00 0.00 0.00 0.00
0.00 0.00 0.00 0.01 0.06 0.25 0.11 0.10 0.10 0.11 0.09 0.06 0.06 0.13 0.14 0.13 0.10 0.05 0.06 0.03 0.03 0.03 0.01 0.00 0.00 0.00 0.00 0.00 0.00 0.00 0.00 0.00
0.00 0.00 0.00 0.02 0.07 0.20 0.15 0.12 0.20 0.14 0.25 0.27 0.19 0.21 0.20 0.19 0.09 0.04 0.04 0.05 0.06 0.06 0.02 0.03 0.02 0.01 0.00 0.00 0.00 0.00 0.00 0.00
0.00 0.00 0.01 0.03 0.11 0.17 0.29 0.31 0.21 0.19 0.34 0.40 0.23 0.21 0.17 0.27 0.25 0.10 0.08 0.05 0.04 0.05 0.04 0.03 0.03 0.01 0.01 0.00 0.00 0.00 0.00 0.00
0.00 0.02 0.04 0.04 0.08 0.13 0.18 0.32 0.41 0.27 0.25 0.23 0.21 0.17 0.18 0.15 0.16 0.20 0.18 0.11 0.10 0.10 0.05 0.03 0.03 0.02 0.01 0.01 0.00 0.01 0.01 0.00
0.00 0.01 0.02 0.05 0.11 0.08 0.06 0.29 0.41 0.48 0.33 0.16 0.14 0.08 0.06 0.07 0.13 0.18 0.12 0.09 0.08 0.08 0.04 0.02 0.01 0.02 0.01 0.01 0.02 0.02 0.01 0.00
0.00 0.00 0.01 0.04 0.07 0.05 0.09 0.09 0.25 0.37 0.24 0.12 0.06 0.03 0.04 0.06 0.08 0.07 0.06 0.05 0.05 0.05 0.03 0.03 0.04 0.02 0.01 0.02 0.02 0.01 0.01 0.01
0.00 0.00 0.00 0.01 0.01 0.01 0.06 0.04 0.03 0.12 0.23 0.23 0.07 0.05 0.07 0.08 0.09 0.14 0.11 0.08 0.06 0.05 0.04 0.03 0.02 0.02 0.04 0.02 0.01 0.00 0.00 0.00
0.00 0.00 0.00 0.00 0.00 0.00 0.00 0.00 0.10 0.06 0.05 0.10 0.09 0.10 0.12 0.14 0.14 0.15 0.11 0.06 0.03 0.02 0.01 0.01 0.02 0.02 0.01 0.01 0.02 0.00 0.01 0.01
0.00 0.00 0.00 0.00 0.00 0.00 0.01 0.03 0.11 0.09 0.07 0.12 0.22 0.19 0.18 0.14 0.13 0.10 0.07 0.04 0.02 0.02 0.02 0.01 0.01 0.00 0.01 0.02 0.02 0.01 0.01 0.02
0.00 0.00 0.00 0.00 0.00 0.02 0.09 0.08 0.14 0.23 0.25 0.27 0.27 0.13 0.13 0.14 0.15 0.08 0.04 0.03 0.03 0.02 0.00 0.00 0.01 0.00 0.01 0.02 0.01 0.03 0.10 0.18
0.00 0.00 0.00 0.00 0.04 0.11 0.08 0.10 0.12 0.23 0.27 0.35 0.13 0.21 0.16 0.09 0.07 0.06 0.05 0.05 0.03 0.01 0.00 0.01 0.01 0.01 0.02 0.05 0.12 0.22 0.19 0.09
0.00 0.00 0.00 0.01 0.05 0.05 0.04 0.06 0.09 0.16 0.20 0.17 0.11 0.19 0.15 0.09 0.05 0.04 0.02 0.01 0.01 0.01 0.00 0.00 0.01 0.04 0.09 0.18 0.22 0.11 0.02 0.00
0.00 0.00 0.01 0.01 0.01 0.02 0.03 0.05 0.08 0.07 0.06 0.02 0.04 0.05 0.03 0.04 0.01 0.01 0.00 0.00 0.00 0.00 0.01 0.03 0.05 0.13 0.19 0.11 0.03 0.01 0.00 0.00
0.00 0.00 0.00 0.00 0.00 0.00 0.00 0.02 0.01 0.01 0.01 0.01 0.01 0.02 0.01 0.01 0.00 0.00 0.00 0.00 0.01 0.04 0.08 0.12 0.22 0.17 0.05 0.03 0.02 0.01 0.00 0.00
0.00 0.00 0.00 0.00 0.00 0.00 0.00 0.00 0.00 0.00 0.01 0.00 0.00 0.01 0.00 0.00 0.00 0.01 0.02 0.06 0.10 0.16 0.20 0.16 0.06 0.02 0.04 0.04 0.03 0.01 0.00 0.00

GFSFLT1_prec_precacc_045.txt.gz
Total_Precipitation_Accumulation
0.03 0.07 0.07 0.07 0.05 0.10 0.37 0.48 0.77 0.78 0.46 0.31 0.12 0.08 0.11 0.11 0.11 0.16 0.13 0.02 0.02 0.04 0.09 0.03 0.00 0.00 0.00 0.00 0.00 0.00 0.00 0.00
0.05 0.07 0.09 0.07 0.08 0.18 0.39 0.47 0.62 0.37 0.13 0.05 0.05 0.10 0.13 0.11 0.14 0.20 0.18 0.06 0.07 0.12 0.11 0.02 0.00 0.00 0.00 0.00 0.00 0.00 0.00 0.00
0.02 0.04 0.03 0.04 0.11 0.36 0.43 0.23 0.15 0.07 0.02 0.01 0.04 0.07 0.07 0.04 0.06 0.10 0.09 0.09 0.08 0.08 0.06 0.06 0.02 0.00 0.00 0.00 0.00 0.00 0.00 0.00
0.03 0.03 0.03 0.01 0.02 0.18 0.18 0.06 0.05 0.08 0.02 0.02 0.03 0.09 0.13 0.07 0.04 0.10 0.07 0.08 0.06 0.12 0.03 0.02 0.07 0.01 0.00 0.00 0.00 0.00 0.00 0.00
0.00 0.00 0.00 0.01 0.06 0.25 0.11 0.10 0.10 0.11 0.09 0.06 0.06 0.13 0.14 0.13 0.10 0.05 0.07 0.04 0.06 0.16 0.04 0.02 0.04 0.02 0.00 0.00 0.00 0.01 0.00 0.00
0.00 0.00 0.00 0.02 0.07 0.20 0.15 0.12 0.20 0.14 0.25 0.27 0.21 0.21 0.20 0.19 0.10 0.07 0.07 0.06 0.08 0.17 0.06 0.04 0.03 0.02 0.01 0.01 0.01 0.01 0.00 0.00
0.00 0.00 0.01 0.03 0.11 0.17 0.29 0.31 0.21 0.19 0.34 0.41 0.26 0.21 0.17 0.27 0.26 0.13 0.15 0.12 0.13 0.23 0.12 0.04 0.04 0.03 0.02 0.01 0.00 0.01 0.01 0.01
0.00 0.02 0.04 0.04 0.08 0.13 0.18 0.32 0.41 0.27 0.25 0.23 0.21 0.18 0.21 0.16 0.16 0.20 0.23 0.19 0.17 0.15 0.11 0.05 0.05 0.03 0.02 0.01 0.01 0.02 0.03 0.01
0.00 0.01 0.02 0.05 0.11 0.08 0.06 0.29 0.41 0.48 0.33 0.16 0.14 0.08 0.06 0.07 0.13 0.18 0.13 0.11 0.09 0.09 0.07 0.06 0.05 0.05 0.03 0.01 0.03 0.04 0.01 0.01
0.00 0.00 0.01 0.04 0.07 0.05 0.09 0.09 0.27 0.37 0.24 0.12 0.06 0.03 0.04 0.06 0.08 0.07 0.06 0.05 0.05 0.05 0.04 0.05 0.06 0.04 0.01 0.02 0.03 0.01 0.01 0.01
0.00 0.01 0.06 0.02 0.02 0.02 0.09 0.07 0.08 0.15 0.24 0.23 0.07 0.07 0.07 0.08 0.09 0.14 0.11 0.08 0.07 0.05 0.04 0.03 0.02 0.02 0.04 0.03 0.01 0.00 0.00 0.00
0.00 0.01 0.04 0.05 0.10 0.07 0.04 0.11 0.33 0.24 0.19 0.11 0.10 0.13 0.14 0.20 0.14 0.16 0.12 0.06 0.03 0.02 0.01 0.01 0.02 0.02 0.01 0.01 0.02 0.00 0.01 0.03
0.00 0.00 0.00 0.01 0.02 0.01 0.01 0.04 0.15 0.22 0.20 0.15 0.32 0.54 0.43 0.41 0.20 0.11 0.08 0.04 0.02 0.02 0.02 0.01 0.01 0.00 0.01 0.02 0.02 0.02 0.04 0.07
0.00 0.00 0.00 0.00 0.00 0.02 0.09 0.09 0.20 0.40 0.35 0.45 0.61 0.42 0.44 0.36 0.24 0.12 0.07 0.04 0.03 0.02 0.00 0.00 0.01 0.00 0.01 0.02 0.01 0.04 0.14 0.24
0.00 0.00 0.00 0.00 0.04 0.11 0.09 0.16 0.19 0.40 0.40 0.52 0.23 0.33 0.22 0.15 0.08 0.07 0.08 0.06 0.04 0.01 0.01 0.01 0.01 0.01 0.02 0.05 0.12 0.25 0.23 0.11
0.00 0.00 0.00 0.01 0.05 0.05 0.04 0.06 0.10 0.19 0.22 0.18 0.13 0.27 0.17 0.09 0.05 0.04 0.03 0.02 0.02 0.01 0.01 0.00 0.01 0.04 0.09 0.19 0.23 0.13 0.03 0.00
0.00 0.00 0.01 0.01 0.01 0.02 0.03 0.06 0.10 0.11 0.07 0.02 0.05 0.06 0.05 0.06 0.03 0.03 0.01 0.01 0.00 0.00 0.01 0.03 0.05 0.13 0.20 0.12 0.03 0.01 0.00 0.00
0.00 0.00 0.00 0.00 0.00 0.00 0.01 0.06 0.05 0.02 0.02 0.03 0.02 0.03 0.04 0.03 0.01 0.00 0.00 0.00 0.01 0.04 0.08 0.12 0.22 0.17 0.05 0.03 0.02 0.01 0.00 0.00
0.00 0.00 0.00 0.00 0.00 0.00 0.01 0.02 0.01 0.00 0.01 0.02 0.02 0.03 0.02 0.01 0.00 0.01 0.02 0.06 0.10 0.16 0.20 0.16 0.06 0.02 0.04 0.04 0.03 0.01 0.00 0.00

GFSFLT1_prec_precacc_048.txt.gz
Total_Precipitation_Accumulation
0.03 0.07 0.07 0.07 0.05 0.10 0.38 0.52 0.84 0.80 0.46 0.32 0.12 0.08 0.12 0.11 0.11 0.16 0.13 0.02 0.02 0.04 0.10 0.05 0.00 0.00 0.00 0.00 0.00 0.00 0.00 0.00
0.05 0.07 0.09 0.07 0.08 0.18 0.39 0.47 0.62 0.37 0.13 0.05 0.05 0.10 0.13 0.11 0.14 0.20 0.18 0.06 0.07 0.12 0.13 0.05 0.00 0.00 0.00 0.00 0.00 0.00 0.00 0.00
0.02 0.04 0.03 0.04 0.11 0.36 0.43 0.23 0.15 0.07 0.02 0.01 0.04 0.07 0.07 0.04 0.06 0.10 0.09 0.09 0.08 0.09 0.09 0.07 0.03 0.01 0.00 0.00 0.00 0.00 0.00 0.00
0.03 0.03 0.03 0.01 0.02 0.18 0.18 0.06 0.05 0.08 0.02 0.02 0.03 0.09 0.13 0.07 0.04 0.10 0.07 0.08 0.06 0.12 0.04 0.02 0.09 0.01 0.01 0.03 0.00 0.00 0.00 0.00
0.00 0.00 0.00 0.01 0.06 0.25 0.11 0.10 0.10 0.11 0.09 0.06 0.06 0.13 0.14 0.13 0.10 0.05 0.07 0.04 0.07 0.19 0.08 0.03 0.11 0.09 0.01 0.01 0.00 0.01 0.01 0.00
0.00 0.00 0.00 0.02 0.07 0.20 0.15 0.12 0.20 0.14 0.25 0.27 0.21 0.21 0.20 0.19 0.10 0.07 0.07 0.06 0.09 0.18 0.10 0.08 0.06 0.11 0.04 0.01 0.01 0.01 0.01 0.00
0.00 0.00 0.01 0.03 0.11 0.17 0.29 0.31 0.21 0.19 0.34 0.41 0.26 0.21 0.17 0.27 0.26 0.13 0.15 0.12 0.16 0.30 0.28 0.16 0.08 0.07 0.06 0.02 0.01 0.01 0.01 0.01
0.00 0.02 0.04 0.04 0.08 0.13 0.18 0.32 0.41 0.27 0.25 0.23 0.21 0.18 0.21 0.16 0.16 0.20 0.23 0.19 0.22 0.24 0.24 0.13 0.08 0.07 0.04 0.03 0.02 0.02 0.03 0.05
0.00 0.01 0.02 0.05 0.11 0.08 0.06 0.29 0.41 0.48 0.33 0.16 0.14 0.08 0.06 0.07 0.14 0.19 0.13 0.12 0.10 0.14 0.10 0.09 0.07 0.09 0.06 0.03 0.04 0.04 0.01 0.01
0.00 0.00 0.01 0.04 0.07 0.05 0.09 0.10 0.27 0.37 0.24 0.12 0.06 0.03 0.04 0.07 0.09 0.08 0.07 0.06 0.09 0.08 0.05 0.06 0.06 0.05 0.02 0.03 0.03 0.01 0.01 0.01
0.00 0.01 0.06 0.02 0.03 0.02 0.11 0.10 0.10 0.22 0.27 0.23 0.07 0.07 0.09 0.11 0.11 0.17 0.15 0.10 0.08 0.07 0.05 0.03 0.02 0.02 0.04 0.03 0.01 0.00 0.00 0.01
0.00 0.01 0.04 0.05 0.10 0.07 0.05 0.12 0.35 0.31 0.27 0.14 0.10 0.13 0.26 0.35 0.22 0.25 0.24 0.15 0.10 0.08 0.03 0.01 0.02 0.03 0.02 0.01 0.02 0.01 0.02 0.03
0.00 0.00 0.00 0.02 0.02 0.01 0.01 0.05 0.16 0.24 0.24 0.16 0.33 0.58 0.54 0.67 0.60 0.54 0.37 0.16 0.11 0.09 0.05 0.03 0.02 0.01 0.02 0.02 0.02 0.02 0.04 0.07
0.00 0.00 0.00 0.00 0.00 0.02 0.09 0.09 0.21 0.44 0.44 0.48 0.66 0.55 0.60 0.56 0.56 0.39 0.21 0.07 0.08 0.05 0.02 0.02 0.02 0.01 0.02 0.02 0.02 0.04 0.14 0.25
0.00 0.00 0.00 0.00 0.04 0.11 0.09 0.17 0.22 0.44 0.45 0.58 0.36 0.45 0.37 0.32 0.22 0.14 0.10 0.08 0.10 0.04 0.02 0.02 0.02 0.01 0.02 0.05 0.13 0.25 0.23 0.12
0.00 0.00 0.00 0.01 0.05 0.05 0.04 0.06 0.11 0.22 0.27 0.22 0.19 0.35 0.32 0.19 0.07 0.07 0.06 0.04 0.05 0.04 0.02 0.01 0.02 0.04 0.09 0.19 0.23 0.13 0.03 0.01
0.00 0.00 0.01 0.01 0.01 0.02 0.03 0.06 0.12 0.15 0.12 0.06 0.11 0.14 0.18 0.12 0.05 0.03 0.03 0.03 0.03 0.01 0.02 0.03 0.05 0.13 0.22 0.12 0.04 0.01 0.00 0.00
0.00 0.00 0.00 0.00 0.00 0.00 0.01 0.06 0.05 0.05 0.07 0.10 0.09 0.10 0.10 0.06 0.02 0.01 0.02 0.04 0.03 0.05 0.09 0.12 0.22 0.17 0.06 0.04 0.02 0.01 0.00 0.00
0.00 0.00 0.00 0.00 0.00 0.00 0.01 0.02 0.02 0.03 0.04 0.05 0.06 0.07 0.06 0.04 0.04 0.03 0.05 0.09 0.12 0.16 0.21 0.16 0.06 0.02 0.04 0.04 0.03 0.01 0.00 0.00